Regional Weather Roundup
Issued by NWS

Home | Current Version | Previous Version | Text Only | Print | Product List | Glossary Off
Versions: 1 2 3 4 5 6 7 8 9 10 11 12 13 14 15 16 17 18 19 20 21 22 23 24 25 26 27 28 29 30 31 32 33 34 35 36 37 38 39 40 41 42 43 44 45 46 47 48 49 50

000
ASUS45 KABQ 152110
RWRNM
WEATHER ROUNDUP FOR NEW MEXICO
NATIONAL WEATHER SERVICE ALBUQUERQUE NM
300 PM MDT MON SEP 15 2014

NOTE: "FAIR" MEANS FEW OR NO CLOUDS BELOW 12,000 FEET AGL WITH NO
       SIGNIFICANT WEATHER OR OBSTRUCTIONS TO VISION.

      THIS PRODUCT IS RELEASED AS TWO VERSIONS.  ONE VERSION NEAR
      THE TOP OF THE HOUR CONTAINING PRELIMINARY DATA FROM ALBUQUERQUE
      AND OTHER STATIONS.  A FINAL VERSION WITH ADDITIONAL DATA IS
      ISSUED ABOUT 10 MINUTES AFTER THE HOUR.

NMZ501-503-504-510>518-152200-
NORTHWEST PLATEAU/NORTHCENTRAL MOUNTAINS

CITY           SKY/WX    TMP DP  RH WIND       PRES   REMARKS
FARMINGTON     SUNNY     85  38  18 VRB3      30.16F
LOS ALAMOS     PTSUNNY   76  41  28 SE3       30.31F
SANTA FE       PTSUNNY   80  39  23 E22G30    30.23F
ANGEL FIRE     FAIR      70  38  31 SE5G17    30.44F

$$
NMZ402-403-502-505>509-152200-
WESTCENTRAL MOUNTAINS/SOUTHWEST MOUNTAINS

CITY           SKY/WX    TMP DP  RH WIND       PRES   REMARKS
GALLUP         PTSUNNY   82  40  22 NE12      30.22F
GRANTS         MOSUNNY   84  39  20 SE12G18   30.26F
SILVER CITY    PTSUNNY   77  54  44 SE12      30.20F

$$
NMZ407-409-411-412-152200-
SOUTHERN DESERTS

CITY           SKY/WX    TMP DP  RH WIND       PRES   REMARKS
LORDSBURG      FAIR      81  55  41 SE13G18   30.11F
DEMING         CLOUDY    80  57  45 E10G17    30.13F
LAS CRUCES     PTSUNNY   78  58  49 SE9       30.16F
HOLLOMAN AFB   SUNNY     80  58  46 S10       30.12F
ALAMOGORDO     PTSUNNY   82  57  42 SW9G17    30.14F
T OR C         SUNNY     84  55  36 MISG      30.14F

$$
NMZ519>523-152200-
CENTRAL VALLEYS/CENTRAL HIGHLANDS

CITY           SKY/WX    TMP DP  RH WIND       PRES   REMARKS
ALBUQUERQUE    MOSUNNY   83  54  36 VRB3      30.17F
DOUBLE EAGLE   MOSUNNY   82  52  34 VRB6      30.21F
MORIARTY ARPT  MOCLDY    82  50  33 S10G20    30.24F
CLINES CORNERS SUNNY     78  43  28 SE18G25   30.30F
BELEN          FAIR      83  51  32 CALM      30.16F
SOCORRO        FAIR      85  52  32 S7        30.15F

$$
NMZ524>526-539-540-152200-
SOUTHCENTRAL MOUNTAINS

CITY           SKY/WX    TMP DP  RH WIND       PRES   REMARKS
RUIDOSO        MOSUNNY   73  55  53 SE10      30.32F

$$
NMZ527>531-152200-
NORTHEAST HIGHLANDS/NORTHEAST PLAINS

CITY           SKY/WX    TMP DP  RH WIND       PRES   REMARKS
LAS VEGAS      MOSUNNY   76  49  38 E14G20    30.33F
RATON          MOSUNNY   75  46  35 NE9G16    30.30F
CLAYTON        CLOUDY    61  54  77 N18       30.29F

$$
NMZ532>537-152200-
EASTCENTRAL PLAINS

CITY           SKY/WX    TMP DP  RH WIND       PRES   REMARKS
TUCUMCARI      PTSUNNY   79  58  48 NE20      30.19F
CANNON AFB     MOSUNNY   80  59  49 E8        30.20F
CLOVIS AIRPORT   N/A     75  59  57 SW5       30.23F

$$
NMZ028-029-538-152200-
SOUTHEAST PLAINS

CITY           SKY/WX    TMP DP  RH WIND       PRES   REMARKS
ROSWELL        PTSUNNY   73  62  68 SE9       30.17F
CARLSBAD       PTSUNNY   75  67  76 SE7       30.14F
HOBBS          PTSUNNY   73  64  73 SE6       30.18F


$$



USA.gov is the U.S. government's official web portal to all federal, state and local government web resources and services.